Location: *
(40.4000°N, 15.1200°E)
Time: 06:04:16
(UTC+00:00)

Cosmos 1959 Rocket - Pass Details

Date: 09 April 2020
Orbit: 946 x 998 km, 82.9° (Epoch: 27 May)

Event Time Altitude Azimuth Distance (km) Brightness Sun altitude
Rises 19:42:11 0° 353° (N) 3,708 8.1 -23.5°
Reaches altitude 10° 19:44:44 10° 355° (N) 2,749 7.4 -23.9°
Maximum altitude 19:51:03 81° 83° (E) 992 4.4 -24.8°
Enters shadow 19:52:38 53° 160° (SSE) 1,182 4.6 -25.1°
